Location: Newark
(30.0333°N, 31.2167°E)
Time: 22:01:27
(UTC+00:00)

Tiros 1 despin weight - Pass Details

Date: 20 January 2020
Orbit: 594 x 642 km, 48.2° (Epoch: 20 February)

Event Time Altitude Azimuth Distance (km) Brightness Sun altitude
Rises 08:18:40 0° 176° (S) 2,835 ? 33.5°
Reaches altitude 10° 08:23:36 10° 128° (SE) 1,954 ? 34.0°
Maximum altitude 08:23:46 10° 126° (SE) 1,954 ? 34.1°
Drops below altitude 10° 08:23:55 10° 124° (SE) 1,955 ? 34.1°
Sets 08:28:56 0° 76° (ENE) 2,884 ? 34.6°
